Theta_e
291 292 291 291 291 290 290 290 290 289 290 289 290 290 290 290 290 290 291 291 291 291 292 293 292 292 293 293 293 293 293 294 294 294 294 294 295 297 304 306 307 308 309 311 313 315 317 318 319 320 321 321 321 322 323 323 324 324 325 326 328 329 329 327 327 330 336 339 341 342 344 345 343 345 346 346 346 346 346 345 345 344 344 343 343
291 290 290 290 290 290 290 289 289 289 289 289 290 289 289 289 290 290 291 290 290 291 292 291 291 292 292 292 292 292 292 292 293 293 293 294 294 295 302 304 306 307 307 308 311 313 315 316 317 318 319 320 321 322 322 322 323 323 324 324 325 327 327 328 328 327 330 335 339 340 341 343 343 342 343 345 345 345 346 346 345 345 344 344 343
290 290 290 289 289 289 289 289 288 288 289 289 290 290 289 289 289 289 290 290 290 290 290 290 290 290 291 291 291 291 291 292 291 292 292 293 293 293 296 302 303 305 306 307 309 311 312 314 315 316 317 318 319 320 320 322 322 322 321 321 322 324 325 326 328 328 328 329 333 338 339 341 341 342 343 343 344 345 345 345 345 344 344 344 343
290 290 290 289 289 289 288 288 287 288 289 288 289 289 289 289 289 290 289 289 289 289 290 290 289 289 290 290 291 291 291 291 291 291 291 291 292 292 293 295 301 303 305 306 308 309 311 311 312 313 315 316 317 319 319 320 321 321 321 321 322 322 322 323 324 327 329 329 329 332 337 338 340 341 342 342 342 343 344 344 344 344 343 344 343
290 291 292 289 289 288 288 289 288 288 288 289 289 288 288 288 288 290 289 289 289 289 290 289 288 289 289 289 290 290 291 291 290 290 290 291 291 291 292 294 294 299 303 305 307 308 309 310 311 312 314 315 316 317 317 318 318 319 320 321 322 322 323 323 322 323 325 328 330 330 332 337 338 340 341 341 341 341 341 342 344 344 344 343 343
291 289 289 288 289 289 288 287 287 288 288 288 287 287 287 287 288 287 290 289 287 288 288 288 288 288 288 289 289 289 289 289 290 290 290 290 291 291 292 292 293 294 296 302 305 306 308 309 310 311 312 312 313 315 316 316 318 319 320 321 321 323 323 323 323 324 325 325 326 329 330 332 335 338 340 341 340 340 340 341 341 343 343 343 343
290 289 288 288 288 287 287 287 287 287 286 287 287 287 287 287 288 287 286 287 287 288 288 287 287 288 288 288 288 289 289 289 290 289 290 290 291 291 292 292 292 294 296 294 298 301 305 307 309 310 310 311 312 313 315 316 317 318 319 319 320 321 322 322 323 323 323 324 324 325 326 328 331 334 337 340 341 340 341 341 341 343 343 342 342
290 289 288 287 287 287 287 288 287 287 287 287 287 286 286 287 287 287 286 286 288 286 287 287 287 287 287 288 288 289 289 289 289 289 289 290 290 291 292 292 293 293 296 295 295 297 303 306 308 309 309 310 310 311 313 315 315 316 317 318 318 319 320 320 320 321 321 321 320 321 323 325 327 329 331 336 339 341 341 341 340 338 340 341 342
289 289 288 288 287 287 286 287 287 286 286 285 285 287 286 288 286 288 287 286 285 285 286 286 286 287 287 288 288 289 288 288 288 288 290 289 290 290 291 292 293 297 294 294 295 296 299 304 306 307 308 309 310 310 311 312 314 315 316 317 318 319 319 319 320 321 321 320 321 321 322 322 324 326 329 331 334 338 340 340 340 339 339 338 340
289 288 287 288 287 287 287 287 287 286 285 285 285 286 285 286 285 286 286 285 284 284 285 286 287 287 287 288 288 288 288 288 288 291 289 289 289 290 291 291 292 293 294 295 295 296 296 299 304 305 305 307 309 309 309 310 312 314 315 316 315 315 315 314 315 318 320 320 320 320 321 323 324 324 324 327 330 333 337 339 340 339 339 339 338
289 288 287 287 286 287 287 287 286 285 285 284 284 287 286 285 285 285 286 286 285 285 285 286 286 287 286 287 287 287 288 288 289 288 287 288 289 291 292 291 292 293 294 294 295 295 296 296 296 297 297 304 308 308 308 309 310 310 311 311 312 313 314 314 314 315 316 317 318 318 318 318 319 320 324 325 326 329 333 336 338 340 339 339 339
288 288 287 287 286 286 286 286 286 285 285 284 283 283 284 284 285 285 284 285 287 285 285 285 285 285 285 286 287 287 287 288 287 286 287 287 288 289 289 290 291 292 292 292 293 293 295 295 295 295 297 300 304 306 308 305 304 306 309 310 311 313 314 314 314 315 315 316 316 316 316 317 318 319 319 323 326 327 328 331 336 339 340 340 340
288 287 286 288 286 285 286 285 286 286 285 285 284 284 285 285 285 285 285 283 284 285 284 285 283 283 284 284 285 285 287 287 286 286 287 287 287 287 287 287 287 286 286 288 290 290 290 290 290 293 293 294 297 302 302 301 302 304 306 307 309 311 312 312 312 312 312 313 314 315 316 317 318 320 323 323 324 326 328 328 329 335 338 340 340
288 287 287 286 285 285 285 285 285 285 285 285 284 287 285 284 284 282 284 284 283 284 286 284 281 280 280 281 282 283 284 285 285 285 285 286 287 287 286 286 286 286 288 288 287 287 288 289 291 292 292 295 294 293 293 294 296 301 304 306 307 308 309 310 310 311 311 312 313 314 315 316 318 320 322 321 321 321 324 328 330 333 336 338 340
287 287 286 286 285 285 285 285 285 286 284 283 283 283 283 283 283 283 282 282 284 286 284 284 281 281 281 280 278 280 283 282 283 285 287 287 287 286 286 286 287 288 287 286 286 287 290 291 291 292 292 292 291 291 292 294 294 298 302 304 305 306 308 308 309 309 310 311 311 312 313 315 316 317 318 319 319 320 321 323 325 330 334 337 337
287 287 287 286 285 285 285 284 285 285 283 283 282 282 283 283 283 284 283 281 281 281 285 283 282 281 277 279 279 279 277 277 281 285 286 286 284 285 286 287 287 286 286 286 287 288 289 289 290 290 291 291 291 291 292 292 294 295 295 298 301 302 304 306 307 308 309 310 311 311 312 314 315 316 316 317 318 319 319 321 323 326 330 333 337
286 286 286 285 285 284 284 284 284 284 284 283 282 283 283 283 283 283 282 282 281 280 282 283 282 284 281 279 277 276 276 278 281 282 282 283 284 285 286 286 285 285 286 287 287 288 288 289 289 290 290 290 290 290 290 291 292 294 293 292 294 297 300 304 306 307 309 309 310 310 311 312 313 314 315 316 316 317 319 320 322 323 324 327 332
286 286 285 285 284 284 284 284 283 283 284 283 283 282 282 282 282 282 282 282 281 281 280 283 284 284 283 282 282 277 278 280 279 276 282 284 284 285 284 284 284 286 286 286 286 287 288 288 287 287 288 288 289 289 290 289 290 289 289 290 295 298 299 301 304 306 307 308 308 309 310 311 311 312 313 314 316 316 317 318 320 320 320 322 324
285 285 285 285 284 284 284 283 283 283 284 283 282 282 282 282 283 282 282 285 282 280 280 280 281 281 283 282 282 283 282 279 276 278 276 279 280 281 283 283 284 284 285 285 286 285 285 286 285 286 286 287 287 287 287 287 290 291 292 294 298 298 298 298 299 302 305 307 307 309 309 309 310 310 311 312 313 314 316 318 318 318 318 319 322
285 284 284 284 284 283 283 283 283 283 283 282 282 282 283 283 283 283 282 282 281 280 279 280 279 279 283 281 281 281 280 280 279 277 277 275 276 281 282 283 283 282 284 284 284 283 283 284 284 285 285 286 286 286 287 287 287 288 289 294 295 295 297 297 298 299 301 303 307 308 309 310 310 311 310 311 312 313 315 315 316 317 318 318 320
284 284 283 284 284 283 283 283 282 282 284 282 282 282 281 281 281 281 281 281 281 281 280 280 279 280 279 279 279 279 279 279 279 278 277 275 276 276 277 280 281 282 282 282 283 283 283 284 284 285 285 285 285 286 286 287 287 287 290 293 294 295 296 297 298 298 299 300 303 305 308 309 310 311 311 311 312 313 313 314 316 317 316 317 320
284 283 283 283 283 283 282 282 282 282 283 281 281 281 281 281 281 280 280 280 281 281 280 280 280 280 280 280 279 278 277 278 277 277 277 277 275 276 277 277 276 279 281 282 282 282 283 283 283 283 284 284 285 285 286 286 286 288 290 293 293 295 296 297 298 298 299 299 300 302 304 306 308 310 310 311 312 312 313 313 313 315 316 317 318
283 283 283 283 282 283 282 281 281 283 282 280 280 280 280 280 281 280 281 280 280 280 282 282 281 280 279 279 278 279 278 277 277 277 276 275 276 276 277 278 277 277 279 281 282 282 283 283 282 283 283 283 284 285 285 285 288 289 292 292 293 294 295 296 296 297 297 298 299 300 301 303 305 307 309 311 311 311 312 312 313 312 314 316 316
282 282 282 282 282 281 281 281 281 281 280 280 280 280 280 280 279 279 279 279 279 280 279 279 279 279 279 279 279 279 279 278 278 278 277 276 276 276 276 277 277 278 280 280 281 281 281 281 282 282 283 283 283 284 285 286 286 290 289 290 291 293 294 295 295 296 297 298 299 300 301 302 302 303 305 307 309 311 312 312 312 313 314 315 316
281 281 282 282 282 281 281 280 280 280 280 279 279 280 280 279 279 279 278 278 278 278 278 278 278 278 278 278 278 279 278 278 279 278 278 277 276 275 276 277 275 276 278 278 278 279 281 281 281 281 281 282 284 284 284 285 285 287 290 289 290 291 291 292 293 294 295 295 297 299 301 302 302 303 305 306 307 308 309 311 312 313 314 315 315
282 282 282 282 281 281 281 280 280 280 279 279 279 279 279 278 278 278 277 278 278 278 277 277 277 278 278 277 278 278 277 278 278 278 277 277 276 275 275 276 276 275 277 277 278 277 278 279 280 281 281 281 282 283 283 284 284 287 289 287 286 288 289 291 292 292 292 293 294 295 296 298 300 301 302 305 307 307 309 311 313 312 313 314 314
282 282 282 281 281 281 280 280 279 279 279 279 280 279 279 279 279 278 277 277 277 278 277 277 278 277 277 277 278 277 277 277 277 278 278 277 276 276 275 273 274 275 275 276 277 277 277 279 281 280 280 281 281 281 282 283 285 287 287 284 283 285 287 288 290 290 290 291 292 293 295 297 297 299 299 301 303 304 306 307 310 312 311 313 312
281 281 281 281 280 280 280 279 279 279 279 278 278 278 278 278 277 277 276 279 277 276 277 277 277 277 277 277 277 277 277 277 277 277 277 277 277 277 276 275 273 271 274 274 275 275 278 277 279 279 279 280 281 282 284 284 283 285 285 282 282 282 285 287 288 290 291 291 292 293 295 295 295 295 297 298 299 301 303 303 304 305 305 306 307
281 281 281 280 280 280 279 278 278 278 278 278 278 278 277 277 277 276 276 276 277 276 276 277 277 277 277 277 277 277 277 277 277 277 277 277 277 276 276 275 275 273 271 272 273 274 276 278 276 278 280 281 280 282 281 281 282 283 282 282 281 281 283 286 287 290 292 293 293 293 293 293 294 294 294 295 297 299 301 302 302 302 303 303 307
281 281 280 279 279 280 278 278 278 277 277 277 277 277 277 277 276 276 275 275 275 275 276 276 276 276 277 277 277 277 277 276 277 276 277 276 276 276 276 276 277 275 274 272 272 275 276 277 278 278 280 278 280 280 280 280 283 282 281 281 280 280 283 285 287 289 290 290 291 292 292 292 292 293 293 293 295 296 298 299 300 302 304 305 305
280 279 279 278 278 278 278 277 277 277 277 277 277 276 276 276 275 275 275 275 275 275 275 275 275 276 275 275 275 275 276 276 276 276 276 276 276 276 276 276 276 276 275 274 272 275 278 276 277 278 278 278 279 279 279 279 281 281 280 279 279 281 282 282 284 286 287 288 289 290 290 290 291 291 292 292 293 294 295 297 298 299 301 303 305
279 279 278 278 278 277 277 277 276 276 276 276 276 276 275 275 275 275 274 274 274 274 274 274 275 275 274 273 274 274 275 274 274 275 275 275 275 276 277 277 277 277 277 275 273 273 277 277 277 277 277 277 276 275 276 276 278 279 278 278 278 281 279 279 281 283 284 287 288 288 289 289 290 290 290 290 291 292 293 294 295 297 297 300 303
278 278 277 277 277 277 276 276 276 276 275 275 275 275 275 274 274 274 273 273 273 273 273 273 273 273 273 272 273 273 273 273 274 274 273 273 273 274 274 274 274 275 274 273 272 272 274 276 276 275 275 275 273 274 273 274 275 276 278 277 277 276 277 277 278 281 283 285 286 287 287 288 289 289 290 290 291 292 293 293 294 295 296 300 301
278 277 277 277 276 276 276 275 275 275 275 275 274 274 274 273 272 274 273 272 272 272 272 272 272 273 272 271 272 272 273 272 271 271 271 271 271 271 271 272 271 271 272 271 271 270 270 273 273 274 272 273 271 273 273 273 274 275 275 275 275 276 276 277 278 278 282 283 285 286 287 288 288 289 290 290 291 292 293 294 294 294 296 297 298
277 277 276 276 276 276 275 275 275 274 274 274 274 273 273 273 272 272 273 272 272 272 272 271 271 271 271 271 271 271 271 270 271 270 271 270 271 270 270 271 270 271 271 271 270 269 269 269 271 270 271 271 271 271 273 273 274 274 273 273 274 276 277 277 277 277 281 283 285 286 286 287 288 289 290 290 291 291 292 293 294 294 294 296 297
276 276 276 276 275 275 275 274 274 274 273 273 273 273 273 272 272 272 272 272 272 271 271 271 271 271 270 270 270 270 270 269 269 269 270 270 270 270 270 270 270 270 270 271 271 269 269 268 269 270 271 271 271 272 273 273 273 272 273 273 274 275 275 276 277 276 279 283 284 285 286 287 288 289 290 291 291 292 293 293 294 294 294 295 295
275 275 275 275 275 274 274 274 273 273 273 273 273 272 272 273 273 272 272 271 271 271 271 271 272 271 270 269 269 269 269 268 268 268 268 268 269 269 269 269 270 270 270 271 270 270 269 268 269 271 271 271 272 272 272 272 272 272 273 272 273 274 274 275 276 277 280 282 283 284 285 286 287 288 288 290 291 292 293 294 294 294 294 295 295
275 275 275 274 274 274 274 274 274 273 273 273 273 272 272 271 271 271 271 271 271 271 271 270 270 270 270 269 269 269 268 267 267 268 268 268 268 269 269 269 270 270 270 270 271 270 270 269 269 269 271 271 271 272 272 272 272 271 271 272 273 274 274 274 275 276 278 278 279 280 281 281 282 283 285 287 289 291 292 293 293 294 294 295 296
274 274 274 274 274 273 273 273 273 273 272 272 271 271 270 270 270 270 270 270 270 270 270 270 270 270 270 270 269 269 269 268 268 268 269 269 269 269 270 270 270 270 270 270 270 270 270 269 270 270 270 271 271 270 272 273 273 272 271 271 271 273 274 274 274 276 277 277 279 281 280 281 282 282 284 287 289 290 292 292 292 293 293 293 294
274 274 274 274 273 273 273 272 272 272 271 271 270 270 270 270 269 269 270 269 269 269 269 270 270 270 270 270 270 270 270 270 270 270 270 270 271 270 271 271 271 270 270 270 270 270 270 270 269 269 270 271 271 272 273 273 272 271 273 272 270 271 272 273 274 273 275 275 275 276 279 280 281 282 285 287 289 290 289 289 290 290 292 293 294
274 274 274 273 272 272 272 271 271 271 271 270 270 270 269 269 270 269 269 269 269 269 269 270 270 271 271 271 271 271 272 273 275 275 275 275 273 272 272 271 270 270 271 271 270 270 270 270 269 271 270 270 270 271 271 271 271 270 272 272 271 272 272 272 273 275 275 274 275 276 276 278 279 282 283 282 282 285 286 286 286 287 288 291 294
273 273 272 272 272 271 270 270 270 270 270 270 272 275 273 270 269 269 269 269 270 270 270 270 271 272 272 272 273 275 276 276 276 277 278 278 278 276 275 275 274 273 273 272 271 271 270 268 269 269 269 269 270 271 271 272 273 273 273 272 271 272 272 272 273 274 276 275 275 275 277 280 281 280 280 280 282 283 282 283 284 285 287 289 292
272 271 271 271 270 270 270 270 269 270 270 270 274 276 277 276 271 269 269 270 270 271 271 271 272 272 273 273 273 274 275 275 274 276 277 277 278 278 278 279 278 276 274 273 273 273 272 272 272 272 271 271 272 273 273 273 273 273 273 273 272 272 271 270 269 273 277 277 276 276 278 279 279 279 280 280 281 281 282 282 285 286 287 289 293
270 270 270 270 270 271 271 270 270 270 270 273 276 277 277 278 276 270 271 271 272 272 273 272 273 273 273 273 273 273 273 273 273 273 275 277 277 278 278 279 279 279 279 276 274 273 273 272 272 272 272 272 272 273 273 273 273 273 273 273 273 272 271 271 271 271 276 279 277 276 275 278 279 278 278 279 280 280 281 283 286 287 289 291 293
269 270 271 270 270 270 270 270 270 270 270 274 276 277 277 278 278 277 274 274 273 273 273 273 273 273 273 272 272 272 272 275 274 273 273 273 276 278 278 278 279 279 279 280 280 277 276 274 273 272 273 273 272 273 274 273 274 272 273 272 272 272 272 272 273 274 276 279 276 274 273 275 277 277 276 278 279 280 281 284 286 288 289 291 292
270 270 270 269 270 270 270 270 270 270 270 274 277 277 277 278 278 278 275 274 274 274 274 274 273 272 272 271 271 271 272 272 273 273 273 274 274 274 274 274 274 276 278 279 279 279 278 275 274 272 273 274 273 274 275 276 273 272 272 271 272 271 271 271 273 274 275 276 274 274 273 274 277 276 275 277 280 280 282 285 288 289 291 292 293
270 269 269 269 269 269 270 270 270 270 270 274 277 277 277 277 278 278 275 275 274 274 273 272 272 272 271 271 271 271 272 272 273 274 274 275 275 275 275 275 275 276 275 275 275 275 275 275 275 274 275 275 275 275 275 276 275 274 274 273 272 272 273 274 274 274 274 276 276 275 270 274 277 276 276 278 280 282 283 286 287 288 290 292 293
269 269 269 269 269 269 270 270 269 269 270 275 276 276 276 277 278 276 275 274 273 272 272 272 272 272 272 272 272 272 272 273 275 278 278 276 275 274 274 274 274 275 275 277 279 279 277 276 276 276 276 276 278 277 277 277 276 275 275 275 274 274 272 271 270 273 273 276 277 275 273 274 277 276 276 279 280 280 282 283 286 287 288 290 292
268 268 268 269 269 269 269 269 269 268 269 273 275 275 276 277 276 274 273 272 272 272 272 272 272 272 273 273 273 272 273 274 276 278 278 278 274 274 274 274 274 274 274 275 278 279 279 279 279 279 280 281 281 281 282 282 279 279 277 275 274 274 272 270 271 272 273 276 277 277 275 274 276 277 277 279 279 280 280 281 282 285 287 288 292
267 267 268 268 269 269 269 268 268 268 268 271 274 275 275 276 275 273 272 272 272 272 271 272 272 273 273 275 276 274 274 274 276 277 278 276 274 274 274 273 272 272 273 274 273 273 277 278 278 279 279 279 279 280 280 280 280 280 275 273 274 274 272 272 271 272 274 275 277 279 276 275 277 278 277 278 279 280 280 281 282 283 287 288 291
267 267 268 267 268 268 268 268 270 268 267 269 273 274 275 275 275 273 272 271 271 271 271 271 272 273 273 275 276 276 275 275 276 277 278 277 274 274 273 272 271 270 271 271 271 271 273 273 272 271 271 273 272 272 273 278 279 278 276 275 275 274 272 272 272 272 272 273 277 280 275 276 276 278 278 276 275 279 281 282 283 284 285 286 287
Wind_Speed
6 5 5 4 4 4 3 4 4 4 5 5 4 4 3 3 3 3 4 5 5 6 6 6 6 6 6 6 6 6 6 6 6 6 5 6 6 6 11 14 16 18 19 19 19 19 19 18 18 18 18 18 17 17 17 17 17 17 17 17 18 18 19 18 18 19 19 18 18 17 16 18 19 17 17 17 17 17 17 18 19 22 21 24 22
5 4 6 5 4 3 4 4 5 3 4 5 3 3 3 3 4 4 5 6 6 6 5 6 7 6 6 6 7 6 6 6 6 6 6 6 7 8 11 13 15 17 18 18 18 18 18 18 17 17 17 17 17 18 18 18 17 17 17 17 17 18 18 19 19 19 18 18 18 18 18 18 16 20 19 18 18 18 18 16 18 18 20 21 25
6 5 5 5 4 4 4 4 4 4 3 3 2 3 3 4 4 5 5 6 5 5 6 6 6 6 6 6 7 6 6 6 6 6 6 6 6 6 8 12 13 15 16 18 18 17 18 17 17 17 17 17 18 18 19 19 18 18 17 17 17 17 17 18 19 19 19 19 20 18 18 18 19 17 18 19 19 19 18 18 17 19 20 19 20
5 5 6 5 5 6 4 4 3 3 2 3 4 4 4 3 4 3 3 4 4 5 5 5 6 6 6 7 6 6 6 6 6 6 5 5 5 6 6 8 10 12 13 15 17 17 17 17 17 18 17 17 17 18 18 19 19 19 19 19 18 17 17 17 18 19 20 20 20 20 19 19 18 18 17 18 21 20 19 18 19 19 21 22 23
6 5 5 6 5 5 5 4 3 3 3 3 4 3 4 4 4 3 4 4 4 5 4 4 5 6 6 6 6 6 6 7 7 6 5 5 5 6 6 7 7 9 11 12 13 16 17 17 17 18 17 17 17 18 18 19 20 20 20 20 19 18 18 17 17 18 19 20 21 21 20 19 19 19 18 17 18 20 22 21 20 20 21 22 23
6 5 6 6 5 6 6 4 3 3 3 3 3 2 3 3 3 4 4 4 4 4 5 6 6 5 6 6 6 7 6 7 7 6 5 5 5 5 6 6 6 6 6 9 11 12 15 16 17 17 17 16 17 18 18 19 19 20 21 21 20 19 19 18 18 18 18 18 19 21 22 21 21 20 20 18 18 18 21 23 24 21 21 22 22
5 6 6 5 6 6 5 4 3 3 3 1 2 1 2 2 2 4 3 3 3 3 4 5 6 7 7 6 7 7 7 7 7 7 5 5 4 5 6 6 6 5 6 6 7 9 11 14 16 17 16 16 16 17 18 19 19 20 20 20 21 20 20 19 19 19 19 18 18 19 21 22 23 22 20 20 19 19 20 22 23 22 21 20 22
5 5 6 6 6 7 6 4 4 3 2 1 1 2 2 2 3 3 3 3 4 5 4 6 6 7 7 7 7 7 7 7 8 7 5 4 5 5 6 6 5 5 5 6 6 6 10 11 14 16 16 16 16 17 17 19 19 19 19 19 20 20 20 21 21 20 20 19 19 19 19 20 22 23 23 21 20 20 19 20 21 24 24 22 22
5 5 6 6 6 6 6 5 4 3 3 1 1 1 2 2 2 2 2 2 3 5 5 5 7 7 7 8 8 7 8 8 8 7 5 4 4 5 5 5 4 5 5 6 5 6 8 11 13 14 14 15 15 15 16 19 19 19 19 19 19 19 20 21 22 21 20 19 19 19 19 18 19 21 23 24 23 21 21 20 19 19 23 27 25
6 5 6 5 6 6 6 6 5 4 4 2 1 1 2 3 1 0 2 3 4 4 6 6 6 7 8 9 9 7 8 9 9 7 6 5 4 5 6 5 4 5 5 4 4 5 5 8 11 12 12 11 13 14 17 18 18 17 18 19 21 22 22 23 23 23 21 21 20 21 20 20 19 19 21 22 24 24 22 21 19 20 21 24 26
6 6 7 6 6 6 6 6 5 5 4 3 1 1 3 3 2 0 0 1 2 3 5 6 6 7 8 10 8 9 9 9 8 6 6 4 4 6 4 5 4 4 4 4 4 4 5 6 6 6 6 9 11 14 18 16 15 17 19 20 22 22 21 21 22 23 23 22 22 23 23 23 23 23 22 20 22 24 24 23 22 20 20 21 22
7 6 6 6 6 6 6 5 5 5 4 3 3 3 3 3 1 1 3 0 0 3 3 5 6 7 8 8 7 8 10 10 8 5 5 4 5 5 5 5 4 4 4 4 4 4 4 4 5 6 5 7 9 11 11 13 15 18 20 21 21 20 20 20 21 22 22 23 24 25 25 25 24 24 23 23 21 22 24 25 23 21 21 21 21
7 7 7 7 6 6 6 5 5 5 5 5 5 5 4 3 1 1 2 3 1 1 3 4 6 6 4 6 8 6 9 10 6 5 4 4 5 7 7 6 5 4 4 3 3 4 4 6 6 6 7 7 6 6 8 11 12 17 20 21 20 20 20 21 21 22 23 24 24 25 25 25 24 23 23 22 23 23 23 25 26 26 23 22 21
7 6 7 7 7 7 6 6 6 6 5 5 4 4 3 2 2 2 1 1 2 2 3 5 5 6 11 12 4 4 6 3 3 3 7 9 10 8 7 5 6 4 3 4 5 4 5 5 6 7 6 5 6 6 6 6 7 13 20 20 19 20 20 20 21 21 22 22 23 23 24 24 24 24 24 24 23 24 25 26 26 27 27 25 24
7 7 7 7 7 7 7 6 6 6 5 5 4 4 4 3 3 2 2 1 1 1 1 4 1 4 5 4 8 12 2 5 3 9 11 10 7 6 5 5 6 5 5 5 4 4 4 5 6 6 6 6 7 6 4 5 9 14 14 14 17 18 19 20 22 23 23 23 23 23 24 24 25 25 25 24 23 24 25 25 26 27 27 28 28
8 7 7 7 7 7 6 6 6 5 6 5 4 4 4 3 3 2 1 2 2 2 1 2 2 4 6 2 4 2 11 2 11 8 8 8 3 6 7 8 7 7 6 5 5 3 5 5 6 6 6 6 5 5 6 6 10 11 10 9 10 17 22 25 25 24 23 23 23 23 23 23 24 25 26 26 26 25 25 26 26 25 28 28 28
8 8 8 8 7 7 6 6 6 5 5 5 4 5 4 3 4 3 2 1 2 1 1 2 2 2 1 3 4 3 2 6 13 14 3 4 5 9 7 5 6 6 5 5 3 4 5 4 5 5 6 6 6 6 6 6 4 2 5 9 14 18 23 24 23 23 23 24 24 24 24 23 23 24 26 26 27 27 26 25 25 26 25 27 28
8 8 7 7 7 7 6 6 5 6 6 5 4 4 4 4 4 4 2 3 3 3 2 1 1 1 1 4 3 4 7 6 6 7 4 12 12 8 5 4 4 5 5 5 4 4 3 5 5 6 6 6 7 6 5 4 6 7 7 9 16 20 20 21 22 24 25 25 25 25 25 25 25 25 25 26 28 28 28 26 25 27 27 28 27
8 8 7 7 7 7 7 6 6 6 4 5 5 5 5 4 3 3 3 3 3 3 4 3 3 1 2 2 1 2 2 1 4 6 13 1 1 5 6 5 6 6 5 3 5 7 6 4 5 8 8 7 8 7 7 7 9 10 12 13 13 15 19 22 23 24 25 25 25 25 26 26 26 27 27 27 28 28 29 28 27 27 28 29 29
9 8 8 7 7 7 7 6 6 5 5 6 6 5 5 4 3 3 3 3 3 3 3 1 1 3 1 1 3 3 3 3 4 5 7 13 7 5 6 9 6 4 6 10 8 5 6 6 8 8 7 8 7 7 7 6 5 5 6 11 18 20 22 22 22 22 23 24 25 26 26 27 27 28 28 28 28 28 28 28 29 28 28 28 30
8 8 7 7 7 7 7 6 6 6 5 5 4 5 5 4 3 2 2 1 2 2 1 2 2 4 3 3 2 3 3 4 5 4 6 7 14 3 7 4 5 9 10 6 5 7 6 7 7 8 8 8 8 7 6 6 7 7 8 13 18 20 21 22 22 23 23 23 24 25 27 27 27 28 29 28 28 28 28 29 29 29 28 28 28
8 7 7 7 7 6 6 7 6 6 5 5 5 4 4 4 3 2 2 1 1 2 2 2 2 3 2 3 3 4 4 4 3 2 4 7 12 14 10 15 14 3 7 10 8 5 7 8 8 8 7 7 7 7 7 7 7 6 7 14 21 23 23 21 21 21 23 23 24 25 26 27 28 28 28 29 29 29 29 29 30 29 29 29 28
7 7 7 7 6 6 6 6 5 5 5 5 4 4 4 4 3 2 2 3 3 2 2 2 2 3 3 4 6 6 6 5 6 5 3 6 10 13 12 9 12 17 4 6 6 9 11 8 8 7 7 8 7 7 6 6 8 9 16 18 20 22 24 24 24 23 23 24 25 26 26 27 27 28 28 28 29 30 30 30 30 30 31 30 29
7 7 7 8 7 7 6 6 6 5 5 4 4 4 4 4 3 3 3 3 2 2 2 2 3 4 4 4 6 6 6 6 5 4 5 7 7 13 13 15 16 8 7 9 7 11 7 6 8 9 9 7 6 5 6 6 7 13 13 15 20 22 22 23 24 24 24 24 24 25 26 27 27 28 28 29 30 30 31 32 31 31 31 30 30
8 9 9 10 9 8 8 8 6 6 5 4 4 4 4 4 4 3 3 2 2 2 2 3 3 4 5 4 5 5 6 4 3 3 3 4 5 11 13 8 14 19 10 7 9 3 9 10 7 6 5 5 6 5 6 7 7 11 16 10 17 18 21 23 24 25 26 27 27 27 27 27 26 26 26 27 29 31 33 32 32 32 31 32 31
13 13 11 10 8 8 7 7 6 5 5 5 4 4 5 6 4 3 2 2 1 2 2 2 3 4 3 5 5 6 6 4 3 3 4 4 6 7 13 11 10 17 16 10 6 8 1 3 3 4 5 4 4 5 6 7 7 11 14 13 14 17 21 23 25 27 29 30 31 31 29 28 27 27 27 27 27 27 28 31 34 33 33 33 34
11 9 9 10 9 8 7 8 7 6 6 5 6 5 5 5 3 3 2 2 2 2 3 3 5 5 4 5 6 5 5 4 3 4 2 3 4 5 7 15 18 12 13 17 15 10 8 8 5 4 3 4 3 2 5 7 11 16 15 11 11 18 21 25 27 29 31 32 32 31 29 27 27 27 27 28 28 29 30 29 29 33 38 36 34
8 9 9 9 9 8 8 8 7 7 6 6 6 6 5 5 3 3 3 2 2 2 3 3 5 4 5 4 4 5 4 4 3 3 3 3 3 3 5 7 10 20 14 15 15 15 1 7 0 4 1 2 4 7 6 9 9 17 17 12 12 13 20 25 29 33 33 31 29 28 27 28 29 29 30 29 29 29 28 29 30 30 29 30 32
9 9 10 8 8 8 8 8 8 7 6 6 6 5 5 4 4 3 3 2 2 3 3 4 4 4 4 4 5 5 3 2 2 2 3 2 3 3 4 6 7 11 16 18 22 13 7 3 10 1 2 9 3 4 11 10 12 16 13 13 13 12 19 31 34 32 28 27 27 28 30 31 31 32 32 32 32 31 30 29 29 29 31 31 29
10 9 10 10 9 9 8 8 7 6 6 6 5 5 5 4 3 3 3 3 3 3 3 3 4 3 4 4 4 5 2 1 2 1 1 1 2 3 5 5 5 9 11 15 23 14 8 8 5 12 6 4 10 12 9 12 14 17 13 13 12 15 29 32 30 30 30 32 33 34 34 34 33 33 32 32 33 33 33 32 31 31 31 32 33
10 10 10 10 9 8 8 7 7 7 6 6 6 5 5 4 3 4 2 3 3 3 3 3 3 3 4 4 3 3 1 0 1 2 2 2 4 4 4 5 6 8 11 12 17 27 3 15 8 1 13 14 9 9 11 10 14 18 15 15 17 24 31 24 29 30 32 32 31 31 32 33 33 33 34 34 35 35 36 36 34 33 32 34 34
11 11 11 11 10 10 8 8 8 7 7 6 6 6 5 5 4 4 3 3 3 3 3 2 2 2 2 3 3 1 1 2 2 2 2 1 2 3 4 6 7 7 9 12 17 26 19 9 17 10 7 14 13 11 14 14 12 21 15 14 15 22 16 15 27 32 32 32 31 31 32 33 34 35 35 35 35 36 36 36 36 36 35 34 35
11 11 11 11 10 10 9 8 8 7 7 7 6 6 5 4 4 3 3 3 3 3 3 3 2 2 3 3 2 1 1 2 2 2 2 2 2 4 5 5 7 7 7 10 13 21 23 13 13 15 13 15 18 10 14 15 11 7 13 10 12 12 15 15 16 25 29 29 30 31 33 33 33 34 34 35 35 36 35 35 36 35 35 35 33
12 12 11 10 9 10 9 8 8 8 8 7 7 7 6 6 4 4 5 4 4 4 3 4 2 2 1 2 2 1 1 2 2 2 2 3 3 5 5 5 7 7 6 9 13 16 26 22 14 14 10 7 19 11 10 15 15 8 11 14 12 12 14 12 11 13 27 29 31 32 33 34 34 34 34 34 35 35 35 35 34 34 34 34 35
9 11 11 11 10 10 9 9 9 8 8 8 7 7 7 7 6 5 5 4 4 4 4 4 3 2 3 3 2 0 1 2 3 4 3 4 5 6 7 6 7 7 7 8 11 15 21 23 19 17 15 8 11 15 13 13 13 12 12 13 14 11 12 13 15 13 23 29 31 33 33 34 34 33 33 33 34 34 34 34 35 35 35 35 35
12 9 10 11 10 11 10 10 10 9 9 8 7 7 7 7 6 6 5 5 4 4 4 3 3 3 3 3 3 2 2 4 4 4 4 4 5 6 7 8 8 9 8 9 12 13 15 20 22 14 15 15 12 11 10 12 15 14 12 11 11 15 13 11 12 12 18 29 31 32 32 32 32 31 32 32 32 33 33 34 34 35 35 35 35
11 11 10 10 11 11 11 11 10 9 9 9 8 7 6 6 6 5 5 5 4 4 4 3 4 3 3 3 3 3 3 5 4 4 4 6 7 7 8 8 9 9 9 10 12 14 16 19 20 17 16 16 13 14 12 14 14 13 14 14 13 13 15 14 11 14 23 31 30 31 30 29 28 30 33 33 32 31 31 31 33 34 36 37 34
11 11 12 11 11 11 10 10 9 9 8 8 7 6 6 5 5 4 4 4 4 3 4 4 3 3 4 4 5 5 5 5 5 5 6 8 8 9 11 10 10 10 11 12 12 14 16 19 18 18 17 18 15 16 14 12 15 14 13 16 13 11 13 14 11 9 9 10 9 11 18 23 28 35 35 34 34 34 33 32 33 33 36 33 34
12 12 11 11 8 9 9 9 9 9 8 7 7 7 6 5 5 4 4 4 3 3 4 4 5 5 5 5 5 6 6 6 6 6 7 10 9 12 12 12 11 12 12 12 13 14 17 17 20 18 15 18 19 18 17 15 16 13 15 17 18 13 8 11 14 8 8 10 19 28 26 26 30 27 31 34 33 32 32 30 31 35 35 34 35
12 11 12 11 9 8 9 8 8 8 8 7 6 6 5 5 5 4 5 5 4 4 4 5 6 6 6 6 6 6 7 7 7 9 9 10 10 12 11 11 11 11 11 11 13 14 15 18 16 19 14 13 18 16 14 13 19 15 11 13 17 18 13 11 12 14 10 10 14 14 16 20 22 26 31 28 25 24 27 27 27 30 32 36 34
9 10 9 10 10 9 8 8 8 7 7 7 6 7 7 7 7 7 6 5 5 5 5 6 6 7 7 7 7 8 8 11 15 15 15 14 9 9 9 10 11 11 11 11 11 14 13 15 15 15 16 15 18 14 17 12 15 18 16 12 14 15 14 15 13 11 11 11 11 15 14 12 13 11 8 10 14 19 20 25 23 28 30 31 30
9 9 9 8 9 10 10 8 7 7 7 5 9 14 11 7 6 5 4 4 5 6 6 6 7 7 7 7 8 13 14 15 16 18 20 21 23 18 14 12 12 11 11 11 11 10 11 11 12 13 13 15 16 14 16 15 14 17 18 16 15 15 12 16 16 10 11 12 13 14 13 9 8 9 11 13 13 14 13 13 13 19 25 33 32
9 9 9 10 9 9 10 9 9 7 6 6 14 13 14 15 9 6 6 5 6 7 7 7 6 7 7 7 7 9 11 13 13 19 20 22 23 24 26 24 21 16 14 14 14 12 13 15 13 13 14 15 17 15 11 18 11 16 14 15 15 13 13 14 18 11 7 10 14 13 10 4 7 12 11 12 12 13 12 12 25 29 31 31 30
9 8 10 10 9 8 6 7 6 6 6 10 15 15 15 15 13 8 6 6 7 7 7 7 6 6 7 8 8 6 6 9 11 12 16 22 24 25 25 24 24 25 25 19 17 15 14 14 16 16 15 17 19 22 14 14 16 17 17 16 17 15 21 18 20 19 7 9 10 11 17 12 8 12 14 12 12 11 13 23 30 30 32 32 30
10 11 10 9 8 7 7 8 7 7 6 12 15 15 14 13 13 11 7 7 6 6 6 5 6 7 6 7 7 7 7 16 14 14 15 15 20 26 27 28 28 28 27 30 30 22 17 17 18 21 18 16 15 18 16 16 15 19 17 14 15 16 18 22 20 19 9 1 9 15 19 18 5 10 15 15 10 10 15 22 28 29 30 31 31
10 10 10 10 9 9 9 9 8 8 7 12 15 14 13 13 13 11 4 6 5 5 6 6 4 4 7 6 7 8 9 10 11 13 14 15 15 15 14 13 14 18 23 25 27 31 28 20 19 21 23 19 20 21 20 18 21 17 15 16 17 15 16 20 22 20 19 11 13 15 16 21 7 12 17 16 9 10 11 20 28 29 30 31 31
13 12 10 10 10 11 10 9 8 8 7 14 15 15 13 13 13 11 5 6 5 5 4 3 5 7 7 8 9 10 10 11 11 15 15 14 13 11 12 13 13 14 15 15 14 12 15 18 21 23 24 25 22 25 23 20 17 18 17 18 18 17 16 20 17 19 16 10 10 12 17 21 3 9 15 11 12 11 12 18 28 31 32 31 31
10 10 9 8 11 12 11 10 8 7 7 16 14 14 13 13 13 6 4 5 5 3 2 5 6 7 7 9 10 10 11 12 15 21 19 16 14 15 16 16 16 15 12 13 23 25 23 19 16 16 15 18 25 23 22 19 16 16 17 18 16 13 14 17 19 17 15 8 9 12 12 17 8 12 15 13 11 14 14 12 22 30 31 32 31
13 12 13 10 8 9 9 11 9 6 6 11 13 12 12 12 9 3 4 3 3 5 5 6 6 7 8 10 11 10 10 11 15 20 21 21 14 16 17 16 13 13 13 13 20 25 26 28 31 33 35 36 36 37 36 39 31 24 18 17 16 9 11 12 16 16 14 9 7 12 12 16 12 11 14 12 8 13 13 14 15 22 29 31 30
13 12 10 8 7 7 11 12 7 8 7 9 13 11 11 11 8 4 4 5 5 4 4 6 6 7 9 16 14 11 11 12 17 20 22 18 14 14 14 15 16 14 12 12 12 15 25 29 30 29 30 31 33 37 39 37 36 29 17 17 13 10 15 15 16 17 13 11 9 8 11 15 10 10 12 12 11 11 13 13 16 16 22 24 29
12 11 11 12 10 7 7 9 14 9 7 8 12 11 12 12 9 5 5 4 5 5 4 5 7 7 8 10 13 12 12 14 20 20 22 19 13 13 14 14 14 13 11 11 14 15 12 12 13 15 18 22 21 20 22 34 34 30 20 16 15 13 16 15 15 12 14 12 7 8 12 14 11 12 9 11 11 12 8 12 12 13 12 11 14
Wind_Direction
130 134 122 116 106 95 84 85 74 64 66 57 65 47 29 14 7 2 5 4 358 346 342 334 333 332 336 330 329 327 327 326 326 322 316 312 312 311 314 315 317 320 323 324 324 324 325 326 326 327 326 324 324 323 323 322 321 320 320 318 315 312 308 302 295 294 295 296 294 286 273 266 261 249 242 242 240 238 232 225 225 228 225 222 213
131 134 118 116 104 95 82 80 77 66 64 59 52 63 30 11 9 9 9 4 359 343 346 334 333 333 335 330 325 322 321 322 320 318 317 323 324 322 320 316 314 317 320 320 322 324 325 326 327 327 326 326 326 326 326 325 323 324 324 324 322 318 314 311 306 299 293 292 292 292 287 278 264 259 252 241 243 242 239 228 222 223 227 225 223
124 129 117 119 108 103 95 87 68 61 63 50 37 44 33 31 17 7 9 8 353 342 346 336 330 331 329 326 316 315 311 306 303 306 316 320 320 317 314 312 310 311 314 319 321 324 326 327 327 328 328 327 327 328 328 327 326 326 326 325 324 322 319 316 313 307 301 295 292 290 287 284 278 268 260 250 241 242 241 235 224 218 222 220 216
127 125 126 123 119 112 106 92 89 62 54 48 36 36 39 17 14 21 19 19 356 345 340 338 326 317 316 314 308 309 303 300 297 300 304 306 308 305 301 298 299 302 307 312 318 323 324 325 327 328 328 328 328 329 329 328 327 326 326 326 325 324 323 320 316 314 310 303 297 292 288 282 277 274 269 263 256 246 240 237 236 230 225 225 223
138 134 133 132 129 118 102 108 105 83 49 52 51 33 29 19 8 18 17 15 4 341 336 326 315 309 309 301 305 300 294 292 290 293 298 298 300 300 299 296 297 303 305 306 309 315 318 321 326 328 329 329 330 331 332 331 328 327 326 325 324 325 325 324 321 317 313 311 306 301 295 289 281 275 272 264 254 255 255 248 240 238 232 227 227
141 133 134 134 127 121 119 116 121 88 64 58 48 47 34 33 10 31 10 11 359 340 340 329 314 304 302 298 300 290 290 288 282 281 285 291 293 289 279 275 280 289 296 298 301 305 309 314 319 324 327 327 329 330 330 330 329 328 328 328 327 326 326 326 325 322 319 315 312 310 308 304 295 282 272 267 260 253 251 253 249 241 236 232 229
145 137 140 133 129 120 121 144 125 98 74 79 103 46 79 44 37 24 8 1 352 337 331 310 309 310 307 304 297 297 292 286 289 289 288 287 283 273 269 266 269 275 281 286 294 296 298 303 308 314 319 323 324 326 328 329 328 328 328 329 329 329 328 326 326 325 324 321 318 314 312 312 309 301 286 271 269 264 254 252 250 243 235 232 233
142 138 133 136 132 131 141 142 132 112 127 90 91 90 81 52 11 28 12 348 350 334 333 313 305 304 300 297 293 293 292 289 287 282 274 269 265 270 268 268 270 272 275 276 277 284 289 292 295 300 305 310 316 322 326 328 328 327 328 329 329 330 330 330 328 326 324 323 321 317 313 310 309 308 302 290 273 266 262 259 258 257 252 238 229
143 140 138 140 132 133 148 143 141 142 145 133 106 143 98 81 4 358 43 348 349 324 321 315 311 304 302 297 294 294 292 290 284 281 287 274 280 274 274 271 270 271 276 277 280 286 292 286 286 288 291 295 301 314 324 327 325 325 326 327 329 331 332 331 329 326 323 321 320 317 315 310 306 304 303 300 292 276 266 259 257 252 252 251 246
150 145 139 147 145 142 149 147 147 146 146 135 171 134 100 108 84 25 58 12 337 332 317 313 309 307 305 301 299 294 289 289 282 287 285 293 295 289 283 291 300 292 284 283 285 293 293 291 290 293 297 297 299 313 323 324 322 326 330 332 331 328 328 327 325 324 324 325 326 325 323 318 311 304 301 299 296 291 278 266 256 250 248 250 249
156 151 149 152 152 150 148 159 151 150 141 145 147 107 93 94 103 176 120 8 284 295 294 299 307 302 299 297 294 291 287 281 285 290 291 293 293 286 306 303 299 295 301 304 307 306 300 298 303 302 298 296 300 311 319 324 335 333 327 325 324 322 322 323 322 320 320 320 323 324 323 321 320 317 308 299 296 293 289 278 264 253 247 246 246
160 159 155 158 159 161 156 157 155 147 149 151 173 154 131 97 73 14 338 17 211 273 296 311 300 296 289 289 280 284 284 280 289 290 310 309 300 310 313 302 301 308 311 317 317 316 317 310 306 304 302 303 306 314 335 348 339 331 326 322 319 319 320 322 323 323 323 322 323 322 321 319 317 314 311 306 298 292 289 286 275 260 251 247 245
165 160 163 162 161 156 151 161 161 161 168 185 182 167 153 142 133 85 358 346 358 81 329 327 322 311 279 271 291 273 274 282 292 320 321 321 318 319 306 306 309 311 298 309 326 325 318 315 313 318 320 323 324 335 339 331 331 328 324 319 315 317 319 319 320 319 318 319 319 318 317 315 312 310 310 309 309 302 290 285 284 273 258 249 247
167 165 166 165 162 160 163 170 171 178 184 185 173 156 136 112 116 50 47 8 293 31 338 15 12 2 334 328 299 284 262 292 318 0 346 325 316 318 314 312 311 302 316 343 327 327 324 323 323 317 311 309 310 317 316 322 325 323 317 311 312 312 313 313 313 313 313 312 312 310 309 308 308 307 308 310 311 312 312 300 284 277 268 258 251
169 171 168 173 172 164 173 174 175 173 164 172 157 142 137 129 116 114 18 355 307 316 39 75 338 324 289 323 333 348 340 355 22 353 316 304 306 305 302 311 302 305 306 314 318 322 323 313 306 301 297 299 301 304 315 318 312 301 294 298 306 310 310 310 311 308 306 305 305 306 305 305 305 305 306 307 309 310 309 308 306 293 277 267 260
174 171 172 175 172 169 166 169 178 171 169 165 160 146 121 103 101 105 113 2 18 315 60 72 86 11 5 24 297 359 323 340 329 312 310 305 338 318 316 305 304 308 319 315 311 319 307 306 301 299 298 302 304 307 307 299 287 284 293 312 323 318 311 305 301 300 299 300 301 300 300 300 303 304 305 307 308 306 304 306 304 303 301 283 264
173 175 174 176 171 166 165 171 167 173 159 159 157 155 142 139 132 120 135 169 276 258 310 80 44 99 145 354 343 5 223 309 336 309 353 319 305 300 293 280 287 295 299 288 298 304 306 312 305 303 301 297 298 296 292 292 297 323 323 317 310 304 299 296 295 297 299 299 299 298 297 296 296 298 301 301 303 303 301 300 302 303 302 304 290
176 176 175 172 171 168 166 164 169 169 164 164 157 129 125 128 154 145 154 178 206 252 268 344 117 83 192 181 190 236 317 324 353 301 351 302 290 294 279 261 270 286 279 294 300 302 308 303 298 298 300 300 298 298 297 298 304 301 298 294 288 286 286 291 294 296 297 297 297 296 295 294 294 293 291 295 297 297 297 295 297 300 302 301 299
178 176 177 176 169 168 168 170 171 171 167 151 154 150 145 145 143 133 165 169 150 220 260 277 350 253 209 239 252 253 199 309 262 309 311 305 348 308 299 302 294 285 292 294 306 304 297 294 299 299 296 291 289 290 290 288 287 284 281 278 277 285 292 293 292 291 293 295 294 293 294 294 293 291 290 289 289 290 292 293 294 295 297 296 298
173 179 178 175 170 170 169 169 170 176 164 166 160 154 132 124 127 137 136 152 166 192 236 236 254 283 86 317 297 304 300 275 249 254 275 295 282 267 253 275 290 294 298 302 295 286 300 299 294 294 290 287 288 286 285 288 287 289 289 290 293 292 291 292 292 293 293 293 294 293 292 292 291 290 289 286 284 284 285 288 290 291 291 293 294
178 177 179 175 173 172 169 168 169 176 166 161 158 148 146 144 132 126 149 153 158 182 162 220 179 249 322 309 315 274 283 259 269 251 268 293 292 243 292 229 260 287 295 285 293 296 289 287 290 288 289 291 289 287 292 297 295 293 290 288 291 294 295 296 295 294 293 293 293 293 292 291 289 289 288 287 285 282 283 283 285 286 288 289 289
182 179 177 179 173 169 170 172 173 171 164 164 153 141 131 127 134 144 147 170 195 171 191 208 210 246 234 262 288 305 300 288 243 295 264 233 275 303 309 316 313 285 300 293 287 285 287 295 289 282 285 287 289 292 293 293 293 292 290 293 299 299 299 299 299 300 299 298 296 294 293 291 290 287 286 286 285 283 282 280 281 282 285 284 285
175 183 178 173 172 171 169 172 167 167 159 156 163 149 136 127 131 137 171 193 214 213 237 231 219 238 242 228 243 245 245 259 280 291 281 294 305 297 307 299 296 307 253 250 288 290 294 285 280 285 286 285 286 290 291 291 296 294 296 301 305 308 308 306 304 301 300 298 297 296 294 292 291 289 287 285 283 283 280 279 278 281 280 279 281
179 175 182 176 170 172 168 162 167 165 163 159 153 139 129 124 127 145 157 158 159 161 185 228 241 244 244 239 243 236 241 243 257 268 282 293 302 298 309 319 310 277 297 285 260 262 246 263 274 280 280 282 284 289 298 305 303 306 307 306 306 306 309 312 312 309 306 303 300 296 293 291 290 290 288 287 286 282 280 277 277 275 275 278 279
187 183 189 180 172 170 170 170 168 167 159 152 155 137 130 128 136 138 145 164 181 180 200 216 211 226 235 243 230 238 242 247 254 267 293 308 315 307 301 314 296 303 304 310 312 257 265 260 243 256 242 273 297 303 305 305 303 303 304 308 315 317 315 313 312 310 311 311 309 305 304 302 299 298 295 292 286 281 278 278 274 270 272 275 276
181 189 183 176 174 174 166 162 160 158 158 159 150 139 129 127 131 139 156 182 171 198 216 234 237 239 238 242 247 246 256 255 257 276 286 312 304 301 306 302 287 294 301 300 281 310 222 184 233 234 271 269 279 307 307 308 306 306 313 316 312 314 314 312 311 310 308 306 303 301 298 299 300 301 300 297 296 296 291 281 272 270 271 270 273
184 179 167 172 171 165 164 160 161 159 155 152 146 132 131 128 139 156 158 172 202 207 238 236 247 248 244 234 244 253 251 252 247 256 239 251 264 295 313 312 310 292 300 306 304 267 264 277 217 250 186 284 296 294 316 312 310 312 314 313 307 308 308 306 303 302 298 294 290 288 290 297 300 301 299 297 295 291 290 291 292 281 270 268 270
169 159 170 167 166 164 160 161 155 153 153 151 143 135 132 132 138 140 167 154 185 208 227 227 240 241 244 248 246 254 249 243 239 239 235 242 254 281 287 295 302 307 313 299 299 295 38 290 211 199 230 150 310 310 310 313 316 310 309 304 302 302 305 304 301 297 293 289 286 283 288 294 296 297 296 296 295 292 289 286 286 287 288 285 276
162 162 161 162 160 159 157 155 155 153 150 149 141 137 134 138 147 151 171 183 185 213 220 228 239 237 245 243 241 250 247 223 234 226 235 254 258 252 253 260 283 289 303 310 296 288 303 85 316 182 27 315 319 321 320 311 306 305 299 300 301 302 306 303 297 293 292 293 293 291 290 289 290 290 291 291 290 290 289 287 283 281 280 277 280
161 162 155 155 155 155 153 155 154 150 151 145 137 134 130 133 141 151 168 171 206 229 224 227 239 222 239 248 244 251 245 231 232 260 281 263 268 257 253 253 256 268 283 292 294 289 322 288 163 298 316 309 321 312 306 304 309 307 301 300 304 304 300 296 294 294 294 292 289 288 287 287 287 287 287 286 286 285 285 285 284 283 281 276 271
154 152 153 154 154 155 153 153 152 151 145 139 133 130 133 138 140 157 170 174 207 230 232 227 240 223 235 242 243 241 248 284 349 346 329 295 272 264 250 255 253 257 273 278 287 286 337 296 298 237 306 312 319 317 316 307 308 306 302 302 300 295 294 293 292 291 290 289 288 287 287 286 286 286 286 285 283 283 281 280 281 281 282 279 274
159 155 155 156 156 155 157 154 154 149 144 140 139 139 139 148 155 164 185 184 215 230 237 219 211 225 248 261 263 279 353 22 9 347 333 318 312 299 287 274 266 260 263 265 267 278 291 294 300 310 320 319 314 315 307 304 302 297 293 292 295 298 295 295 292 288 287 287 288 287 287 286 285 285 284 283 282 280 279 277 276 276 278 279 274
153 157 157 158 157 156 155 157 155 154 148 149 147 144 145 149 154 168 184 190 213 233 223 243 228 236 249 254 271 305 22 350 332 337 315 305 303 288 286 284 279 281 280 280 281 286 291 292 293 300 312 317 303 322 305 300 300 297 298 290 293 291 288 281 279 282 284 285 286 287 286 285 283 281 281 280 280 279 277 275 274 272 271 272 272
159 157 158 157 156 154 154 155 155 153 153 151 149 146 152 154 166 167 179 193 214 228 224 241 234 226 235 263 278 310 343 307 305 290 288 283 276 274 263 265 268 268 271 277 280 282 286 299 295 297 294 306 293 306 302 305 303 300 297 298 285 276 276 279 280 281 286 286 285 285 284 284 283 282 280 280 279 277 276 275 273 271 269 266 269
158 158 157 156 157 154 154 157 156 158 158 156 156 153 159 161 170 179 179 188 204 216 216 226 227 219 234 245 260 33 313 292 274 269 262 264 264 263 263 256 260 260 259 262 273 277 282 288 296 299 298 287 270 296 302 294 287 291 286 282 290 286 276 275 276 274 280 284 286 284 284 283 284 282 281 279 277 276 275 274 272 271 267 266 267
157 156 155 156 155 159 158 161 162 160 159 156 156 158 160 164 171 180 181 186 191 188 203 217 211 214 239 258 261 244 244 264 264 264 254 257 258 258 256 252 250 252 251 250 250 261 272 279 287 286 291 298 287 282 284 284 287 291 284 277 266 276 277 270 269 275 280 284 284 284 283 283 282 283 283 280 278 277 273 271 271 269 268 265 263
158 153 157 158 159 162 166 166 162 161 160 156 156 157 158 160 168 172 172 162 180 197 211 219 239 225 231 237 240 238 247 254 258 256 262 262 260 256 257 255 251 248 242 239 243 245 255 265 277 280 283 280 284 288 288 293 290 285 286 278 277 274 277 273 266 271 278 282 284 284 283 282 285 292 292 288 282 279 276 274 271 269 266 265 262
159 163 161 167 167 166 162 160 157 154 151 152 154 153 153 152 155 164 162 173 181 192 211 213 213 229 235 236 240 244 240 246 256 257 258 261 260 258 256 253 249 246 242 239 240 247 252 260 266 278 280 284 285 281 283 280 287 291 289 285 269 254 267 275 266 263 263 269 272 278 287 288 287 285 283 283 282 281 282 281 279 277 273 266 261
163 164 166 162 164 157 157 153 155 151 148 147 148 150 151 152 157 165 171 172 185 186 205 218 234 233 234 231 227 235 237 239 250 254 260 258 252 249 248 250 244 244 245 248 248 250 256 257 265 261 268 276 276 279 284 280 279 276 284 291 290 279 240 262 279 267 261 272 274 277 278 281 283 282 280 279 275 274 277 282 286 283 271 268 267
169 167 164 162 157 153 153 150 147 143 144 143 145 147 148 153 160 171 184 193 203 212 209 224 232 238 238 239 239 237 242 244 246 251 247 252 251 253 249 247 244 243 243 244 251 251 254 255 254 264 257 268 275 269 278 277 286 276 268 277 285 293 289 263 261 279 274 268 277 275 273 275 275 275 274 274 281 289 292 291 294 302 294 269 261
166 165 157 151 149 145 141 139 137 139 145 154 153 157 161 170 170 184 186 189 197 209 224 227 234 240 240 237 236 236 240 251 259 263 258 254 248 245 236 217 229 237 244 248 249 253 252 253 258 257 265 268 265 268 276 264 273 270 287 273 272 273 281 282 266 249 260 268 269 272 270 264 265 262 282 295 288 286 289 292 292 289 290 291 273
158 153 149 146 146 145 141 140 140 145 154 157 176 180 180 171 175 177 183 191 204 215 223 237 241 237 243 254 258 268 275 276 276 275 277 278 277 278 279 278 273 267 261 258 253 245 244 248 247 254 254 254 260 258 267 262 270 270 279 273 269 277 276 275 273 246 255 258 266 264 263 253 263 284 282 276 277 280 283 284 281 283 284 284 283
153 150 145 145 144 147 148 151 155 158 165 172 185 191 191 188 178 179 178 193 201 217 222 228 243 256 257 260 265 272 281 282 280 278 280 280 278 278 280 280 278 277 278 277 273 267 268 267 270 263 258 264 269 265 258 278 265 273 276 278 275 281 281 283 288 282 198 255 267 269 262 238 269 277 276 273 276 278 273 274 282 282 278 275 273
148 144 150 152 143 137 137 136 147 161 170 187 190 192 195 197 185 175 182 190 204 211 229 239 242 255 271 277 276 277 274 277 273 275 277 277 279 281 282 283 283 281 277 275 279 277 274 277 275 271 272 266 277 279 277 275 278 280 273 277 278 282 284 280 281 280 282 251 268 287 286 276 266 270 275 270 273 274 279 282 283 279 276 271 267
149 156 154 144 144 141 146 152 161 170 173 192 192 192 196 198 202 193 178 190 200 213 226 233 255 262 272 282 285 275 271 274 278 274 271 269 269 272 276 277 277 277 280 278 276 276 283 282 282 283 277 282 277 274 276 276 275 277 278 272 272 274 276 278 278 279 264 143 305 291 286 284 236 269 277 271 264 265 275 279 278 275 273 268 266
156 154 148 145 152 153 159 161 162 175 174 191 191 193 193 199 202 206 173 191 208 225 240 244 246 278 282 275 271 271 266 266 266 269 270 272 275 275 270 262 257 260 265 271 278 280 279 277 276 276 278 276 273 276 272 269 271 268 268 267 264 265 265 265 271 269 270 259 264 282 283 277 264 275 272 274 265 265 262 270 276 280 277 268 263
158 161 159 156 161 163 166 166 163 170 176 189 190 190 192 196 201 205 184 197 199 198 205 247 276 267 265 261 263 265 269 268 265 270 279 280 278 281 285 287 282 281 273 267 265 262 263 267 266 267 271 274 271 275 276 271 250 253 254 257 256 255 259 267 267 264 269 239 230 252 264 277 246 256 263 268 276 266 268 277 281 280 278 272 267
162 159 162 158 161 167 167 166 159 162 175 187 186 189 191 194 199 199 177 187 181 208 227 244 247 250 249 255 258 262 265 268 270 281 289 296 298 295 289 282 277 276 273 277 286 287 285 283 278 277 275 275 276 275 276 273 260 257 259 258 259 254 258 260 262 267 266 246 201 238 253 270 259 263 272 269 268 273 271 265 276 277 275 272 267
166 171 170 169 161 158 151 146 143 152 165 186 186 187 192 196 199 165 172 170 211 216 231 232 242 246 250 253 255 262 268 271 287 296 298 300 296 289 284 286 289 292 289 286 287 292 294 292 290 288 286 286 286 286 286 285 283 282 281 274 261 249 249 255 260 263 262 272 218 218 243 264 258 259 270 266 260 269 271 272 270 268 266 263 261
171 172 166 142 133 138 146 148 156 154 160 184 186 187 191 197 195 168 188 193 201 214 231 235 237 243 246 260 271 275 284 292 296 298 298 297 290 294 301 301 297 290 286 298 298 289 283 279 284 290 295 296 294 292 290 288 287 285 277 270 276 280 271 268 275 277 281 269 258 212 241 250 268 250 266 273 267 248 260 264 266 264 259 257 256
167 166 165 162 160 136 145 149 171 164 151 179 186 185 189 196 198 172 182 183 211 222 226 241 242 245 248 252 273 286 294 297 298 298 297 302 304 306 306 300 297 296 298 300 294 288 294 310 308 304 294 290 289 287 284 285 283 281 272 270 275 262 262 263 264 276 275 260 242 219 251 263 260 254 249 275 271 264 232 261 267 264 258 249 246